Weather History for KHIF - December, 2012

Change the Weather History Date:

Thursday, December 6, 2012

  Actual Average (KSLC) Record (KSLC)
Temperature  
Mean Temperature 41 °F 32 °F  
Max Temperature 45 °F 40 °F 58 °F (1987)
Min Temperature 37 °F 24 °F 9 °F (1992)
Degree Days  
Heating Degree Days 24 33  
Month to date heating degree days 195  
Since 1 July heating degree days 1413  
Cooling Degree Days 0 0  
Month to date cooling degree days 0  
Year to date cooling degree days 1160  
Moisture  
Dew Point 39 °F    
Average Humidity 94    
Maximum Humidity 100    
Minimum Humidity 80    
Precipitation  
Precipitation 0.01 in 0.05 in 0.51 in (1927)
Month to date precipitation 0.29  
Year to date precipitation 14.98  
Snow  
Snow 0.00 in 0.40 in 6.10 in (1956)
Month to date snowfall 2.4  
Since 1 July snowfall 11.4  
Snow Depth -    
Sea Level Pressure  
Sea Level Pressure 30.02 in    
Wind  
Wind Speed 6 mph (SE)    
Max Wind Speed 16 mph    
Max Gust Speed -    
Visibility 5 miles    
Events Fog , Rain    
T = Trace of Precipitation, MM = Missing Value Source: NWS Daily Summary

Daily Weather History Graph

Daily Weather History Graph

Search for Another Location

Airport or City:

Trip Planner

Search our weather history database for the weather conditions in past years. The results will help you decide how hot, cold, wet, or windy it might be!

Date:

Astronomy

Dec. 06, 2012 Rise Set
Actual Time 7:39 AM MST 4:59 PM MST
Civil Twilight 7:08 AM MST 5:30 PM MST
Nautical Twilight 6:33 AM MST 6:04 PM MST
Astronomical Twilight 6:00 AM MST 6:37 PM MST
Moon No Moon Rise 12:30 PM MST (12/6)
Length of Visible Light 10h 21m
Length of Day
9h 19m
Waning Gibbous, 48% of the Moon is Illuminated
Dec 6
Waning Gibbous
Dec 13
New
Dec 19
First Quarter
Dec 28
Full
Jan 4
Last Quarter

Hourly Weather History & Observations

Time (MST) Temp. Windchill Dew Point Humidity Pressure Visibility Wind Dir Wind Speed Gust Speed Precip Events Conditions
12:33 AM 42.8 °F 39.3 °F 39.2 °F 87% 30.09 in 10.0 mi East 5.8 mph - N/A   Overcast
12:58 AM 42.3 °F - 39.2 °F 89% 30.06 in 10.0 mi East 2.3 mph - N/A   Overcast
1:03 AM 42.8 °F 41.1 °F 39.2 °F 87% 30.08 in 10.0 mi East 3.5 mph - N/A   Overcast
1:38 AM 41.0 °F 37.1 °F 37.4 °F 87% 30.07 in 10.0 mi SE 5.8 mph - N/A   Scattered Clouds
1:58 AM 40.6 °F 35.4 °F 37.9 °F 90% 30.04 in 10.0 mi East 8.1 mph - N/A   Clear
2:48 AM 41.0 °F 39.0 °F 37.4 °F 87% 30.08 in 10.0 mi Variable 3.5 mph - N/A   Mostly Cloudy
2:58 AM 41.4 °F - 37.2 °F 85% 30.04 in 10.0 mi Variable 1.2 mph - N/A   Mostly Cloudy
3:58 AM 40.3 °F 34.4 °F 37.4 °F 89% 30.03 in 10.0 mi ESE 9.2 mph - N/A   Mostly Cloudy
4:43 AM 41.0 °F 37.1 °F 37.4 °F 87% 30.06 in 10.0 mi ESE 5.8 mph - N/A   Scattered Clouds
4:58 AM 40.1 °F 35.3 °F 37.4 °F 90% 30.03 in 10.0 mi ESE 6.9 mph - N/A   Partly Cloudy
5:13 AM 39.2 °F 35.0 °F 37.4 °F 93% 30.07 in 10.0 mi ESE 5.8 mph - N/A   Mostly Cloudy
5:19 AM 39.2 °F 35.0 °F 37.4 °F 93% 30.06 in 10.0 mi ESE 5.8 mph - N/A   Mostly Cloudy
5:34 AM 39.2 °F 32.5 °F 37.4 °F 93% 30.06 in 10.0 mi ESE 10.4 mph - N/A   Scattered Clouds
5:58 AM 39.2 °F 34.2 °F 37.0 °F 92% 30.03 in 10.0 mi ESE 6.9 mph - N/A   Clear
6:18 AM 39.2 °F 33.6 °F 37.4 °F 93% 30.06 in 10.0 mi ESE 8.1 mph - N/A   Mostly Cloudy
6:23 AM 39.2 °F 33.6 °F 37.4 °F 93% 30.06 in 10.0 mi ESE 8.1 mph - N/A   Mostly Cloudy
6:28 AM 41.0 °F 35.2 °F 37.4 °F 87% 30.06 in 10.0 mi ESE 9.2 mph - N/A   Overcast
6:53 AM 41.0 °F 35.8 °F 37.4 °F 87% 30.06 in 10.0 mi East 8.1 mph - N/A   Overcast
6:58 AM 40.3 °F 33.9 °F 37.4 °F 89% 30.03 in 10.0 mi ESE 10.4 mph - N/A   Overcast
7:58 AM 39.6 °F 34.7 °F 36.7 °F 89% 30.03 in 5.0 mi ESE 6.9 mph - N/A   Mostly Cloudy
8:04 AM 39.2 °F 34.2 °F 37.4 °F 93% 30.06 in 0.5 mi ESE 6.9 mph - N/A Fog Fog
8:18 AM 39.2 °F 33.6 °F 37.4 °F 93% 30.06 in 0.1 mi SSE 8.1 mph - N/A Fog Fog
8:26 AM 39.2 °F 34.2 °F 37.4 °F 93% 30.06 in 0.1 mi SSE 6.9 mph - N/A Fog Fog
8:31 AM 39.2 °F 34.2 °F 39.2 °F 100% 30.06 in 0.1 mi SSE 6.9 mph - N/A Fog Fog
8:41 AM 39.2 °F 33.6 °F 39.2 °F 100% 30.06 in 0.1 mi SE 8.1 mph - N/A Fog Fog
8:46 AM 39.2 °F 33.6 °F 39.2 °F 100% 30.06 in 0.1 mi SSE 8.1 mph - N/A Fog Fog
8:51 AM 39.2 °F 34.2 °F 39.2 °F 100% 30.07 in 0.2 mi SSE 6.9 mph - N/A Fog Fog
8:58 AM 39.2 °F 34.2 °F 38.3 °F 97% 30.05 in 0.2 mi SSE 6.9 mph - N/A Fog Fog
9:58 AM 41.0 °F 37.1 °F 39.2 °F 93% 30.05 in 0.2 mi SSE 5.8 mph - N/A Fog Fog
10:58 AM 41.0 °F 37.1 °F 40.6 °F 99% 30.05 in 0.2 mi SSE 5.8 mph - N/A Fog Fog
11:58 AM 40.3 °F 35.5 °F 39.9 °F 99% 30.02 in 0.2 mi South 6.9 mph - N/A Fog Fog
12:58 PM 40.5 °F 37.3 °F 40.3 °F 99% 30.00 in 0.2 mi South 4.6 mph - N/A Fog Fog
1:23 PM 41.0 °F 39.0 °F 41.0 °F 100% 30.03 in 0.2 mi SE 3.5 mph - N/A Fog Fog
1:33 PM 41.0 °F 39.0 °F 41.0 °F 100% 30.02 in 0.5 mi SE 3.5 mph - N/A Fog Fog
1:38 PM 41.0 °F - 41.0 °F 100% 30.02 in 0.8 mi Variable 2.3 mph - N/A   Mist
1:43 PM 41.0 °F 38.0 °F 41.0 °F 100% 30.02 in 0.8 mi SSE 4.6 mph - N/A   Mostly Cloudy
1:58 PM 41.7 °F 39.8 °F 41.5 °F 99% 29.99 in 1.0 mi SSE 3.5 mph - N/A   Mostly Cloudy
2:08 PM 42.8 °F 41.1 °F 41.0 °F 93% 30.00 in 1.2 mi SE 3.5 mph - N/A   Mostly Cloudy
2:13 PM 42.8 °F 41.1 °F 42.8 °F 100% 30.00 in 1.5 mi South 3.5 mph - N/A   Mostly Cloudy
2:33 PM 42.8 °F 41.1 °F 42.8 °F 100% 29.99 in 3.0 mi SSW 3.5 mph - N/A   Mostly Cloudy
2:58 PM 43.9 °F - 41.2 °F 90% 29.95 in 4.0 mi Calm Calm - N/A   Mostly Cloudy
3:03 PM 44.6 °F - 41.0 °F 87% 29.99 in 5.0 mi South 1.2 mph - N/A   Mostly Cloudy
3:58 PM 45.0 °F - 39.2 °F 80% 29.95 in 10.0 mi West 2.3 mph - N/A   Overcast
4:18 PM 42.8 °F 39.3 °F 41.0 °F 93% 29.98 in 4.0 mi West 5.8 mph - N/A   Overcast
4:58 PM 41.0 °F 38.0 °F 39.7 °F 95% 29.96 in 3.0 mi South 4.6 mph - N/A   Partly Cloudy
5:08 PM 41.0 °F 37.1 °F 39.2 °F 93% 29.97 in 3.0 mi SE 5.8 mph - N/A   Mostly Cloudy
5:23 PM 41.0 °F 39.0 °F 39.2 °F 93% 29.98 in 5.0 mi SSE 3.5 mph - N/A   Mostly Cloudy
5:33 PM 41.0 °F - 39.2 °F 93% 29.97 in 5.0 mi SE 2.3 mph - N/A   Overcast
5:48 PM 41.0 °F - 39.2 °F 93% 29.97 in 5.0 mi Calm Calm - N/A   Overcast
5:58 PM 41.2 °F - 39.9 °F 95% 29.95 in 8.0 mi South 2.3 mph - N/A   Overcast
6:23 PM 41.0 °F 36.4 °F 37.4 °F 87% 29.97 in 10.0 mi SE 6.9 mph - N/A   Mostly Cloudy
6:58 PM 39.7 °F 35.6 °F 36.5 °F 88% 29.95 in 10.0 mi SSE 5.8 mph - N/A   Mostly Cloudy
7:58 PM 41.0 °F 37.1 °F 37.4 °F 87% 29.95 in 2.0 mi West 5.8 mph - N/A   Overcast
8:10 PM 39.2 °F 33.6 °F 37.4 °F 93% 29.98 in 0.5 mi NW 8.1 mph - N/A Fog Fog
8:14 PM 39.2 °F 35.0 °F 37.4 °F 93% 29.98 in 0.2 mi WNW 5.8 mph - N/A Fog Fog
8:19 PM 39.2 °F 35.9 °F 37.4 °F 93% 29.98 in 0.2 mi NNE 4.6 mph - N/A Fog Fog
8:34 PM 37.4 °F - 37.4 °F 100% 29.98 in 1.0 mi SE 1.2 mph - N/A   Mostly Cloudy
8:58 PM 38.7 °F 36.3 °F 38.5 °F 99% 29.97 in 3.0 mi SE 3.5 mph - N/A   Overcast
9:13 PM 39.2 °F - 39.2 °F 100% 29.98 in 9.0 mi ESE 2.3 mph - N/A   Overcast
9:28 PM 39.2 °F 35.9 °F 39.2 °F 100% 29.98 in 10.0 mi SSE 4.6 mph - N/A   Overcast
9:33 PM 39.2 °F 37.0 °F 39.2 °F 100% 29.99 in 10.0 mi WNW 3.5 mph - N/A   Overcast
9:43 PM 39.2 °F 33.6 °F 39.2 °F 100% 29.99 in 7.0 mi WNW 8.1 mph - N/A   Overcast
9:48 PM 39.2 °F 32.0 °F 39.2 °F 100% 30.00 in 2.5 mi WNW 11.5 mph - N/A   Overcast
9:51 PM 39.2 °F 30.5 °F 39.2 °F 100% 30.01 in 0.8 mi WNW 16.1 mph - N/A   Overcast
9:54 PM 39.2 °F 31.6 °F 39.2 °F 100% 30.00 in 0.5 mi West 12.7 mph - N/A Fog , Rain Light Rain
9:58 PM 39.2 °F 35.9 °F 39.2 °F 100% 29.97 in 0.2 mi WNW 4.6 mph - 0.00 in Fog , Rain Light Rain
10:03 PM 39.2 °F 35.0 °F 37.4 °F 93% 30.00 in 0.2 mi NW 5.8 mph - N/A Fog , Rain Light Rain
10:09 PM 39.2 °F 33.0 °F 37.4 °F 93% 30.00 in 0.2 mi NNW 9.2 mph - N/A Fog Fog
10:58 PM 38.1 °F 34.6 °F 37.9 °F 99% 30.00 in 0.2 mi North 4.6 mph - 0.01 in Fog Fog
11:48 PM 37.4 °F - 37.4 °F 100% 30.01 in 0.5 mi North 1.2 mph - N/A Fog Fog
11:53 PM 37.4 °F 33.8 °F 37.4 °F 100% 30.01 in 0.8 mi NNW 4.6 mph - N/A   Overcast
11:58 PM 39.2 °F 35.9 °F 37.4 °F 93% 29.99 in 1.8 mi NNW 4.6 mph - N/A   Mostly Cloudy